Flag for British Virgin Islands Weather past 2 weeks in Road Town, Tortola, British Virgin Islands

Now
81 °F

Overcast.


Feels Like: 86 °F
Forecast: 80 / 84 °F
Wind: 8 mph from East

Location: Cyril E. King International Airport

Current Time: Jul 6, 2015 at 5:49:41 AM

Latest Report: Jul 6, 2015 at 4:53 AM


Visibility: 10 mi

Pressure: 30.04 "Hg

Humidity: 77%

Dew point: 73 °F

Location of Road TownLocation

Historic Weather in Road Town — Graph

°F

Road Town temperature yesterday

Maximum temperature yesterday: 91 °F (at 12:55 PM)
Minimum temperature yesterday: 82 °F (at 1:31 AM)
Average temperature yesterday: 85 °F

Past Weeks' High & Low Weather Summary

 TemperatureHumidityPressure
High92 °F (Jun 29, 11:15 AM)96% (Jun 22, 1:53 PM)30.16 "Hg (Jun 22, 1:53 PM)
Low78 °F (Jun 21, 4:53 AM)39% (Jun 25, 2:38 PM)30.01 "Hg (Jul 3, 3:53 PM)
Average84 °F69%30.09 "Hg
* Reported Jun 21 4:53 AM — Jul 6 4:07 AM, Road Town, Weather by CustomWeather, © 2015

Note: Actual official high and low records may vary slightly from our data, if they occured in-between our weather recording intervals... More about our weather records

Advertising

Road Town weather history for previous 24 hours

 ConditionsComfort  
Time TempWeatherWind HumidityBarometerVisibility
4:07 AM
Mon, Jul 6
81 °FMostly cloudy.10 mph77%30.03 "Hg10 mi
3:53 AM81 °FMostly cloudy.8 mph77%30.03 "Hg10 mi
3:42 AM81 °FOvercast.8 mph77%30.03 "Hg10 mi
3:24 AM81 °FPassing clouds.6 mph77%30.03 "Hg10 mi
3:09 AM81 °FLow clouds.9 mph77%30.03 "Hg10 mi
2:53 AM81 °FOvercast.10 mph77%30.03 "Hg10 mi
2:08 AM82 °FMostly cloudy.9 mph77%30.04 "Hg10 mi
1:53 AM81 °FMostly cloudy.9 mph79%30.04 "Hg10 mi
1:27 AM82 °FOvercast.12 mph77%30.05 "Hg10 mi
1:17 AM82 °FMostly cloudy.14 mph77%30.05 "Hg10 mi
12:53 AM82 °FMostly cloudy.13 mph77%30.06 "Hg10 mi
12:36 AM81 °FMostly cloudy.12 mph79%30.07 "Hg10 mi
11:53 PM
Sun, Jul 5
83 °FOvercast.9 mph70%30.09 "Hg10 mi
10:53 PM83 °FMostly cloudy.10 mph70%30.09 "Hg10 mi
10:31 PM82 °FOvercast.10 mph74%30.10 "Hg10 mi
10:20 PM83 °FOvercast.10 mph72%30.10 "Hg10 mi
9:53 PM82 °FOvercast.12 mph74%30.09 "Hg10 mi
9:00 PM83 °FMostly cloudy.10 mph72%30.08 "Hg10 mi
8:53 PM83 °FPassing clouds.13 mph74%30.08 "Hg10 mi
8:01 PM83 °FOvercast.13 mph72%30.07 "Hg10 mi
7:53 PM83 °FOvercast.16 mph74%30.07 "Hg10 mi
6:53 PM84 °FOvercast.16 mph70%30.06 "Hg10 mi
6:38 PM85 °FOvercast.20 mph68%30.06 "Hg10 mi
6:00 PM86 °FOvercast.13 mph63%30.05 "Hg10 mi
5:53 PM87 °FScattered clouds.14 mph63%30.04 "Hg10 mi
5:07 PM87 °FScattered clouds.17 mph63%30.04 "Hg10 mi
4:53 PM89 °FScattered clouds.13 mph61%30.04 "Hg10 mi
3:53 PM90 °FScattered clouds.15 mph59%30.06 "Hg10 mi
3:10 PM91 °FScattered clouds.14 mph57%30.06 "Hg10 mi
3:00 PM91 °FMostly cloudy.15 mph57%30.06 "Hg10 mi
2:34 PM91 °FScattered clouds.15 mph57%30.06 "Hg10 mi
1:53 PM91 °FScattered clouds.13 mph56%30.07 "Hg10 mi
1:35 PM90 °FMostly cloudy.17 mph59%30.08 "Hg10 mi
12:55 PM91 °FPartly sunny.16 mph57%30.09 "Hg10 mi
11:53 AM90 °FScattered clouds.15 mph59%30.09 "Hg10 mi
10:53 AM89 °FCloudy.12 mph61%30.10 "Hg10 mi
10:17 AM90 °FMostly cloudy.13 mph59%30.09 "Hg10 mi
10:05 AM89 °FCloudy.15 mph59%30.09 "Hg10 mi
9:53 AM89 °FMostly cloudy.16 mph57%30.09 "Hg10 mi
8:53 AM88 °FOvercast.16 mph59%30.09 "Hg10 mi
7:53 AM86 °FOvercast.17 mph61%30.09 "Hg10 mi
7:00 AM84 °FMostly cloudy.17 mph65%30.09 "Hg10 mi
6:53 AM83 °FScattered clouds.18 mph68%30.09 "Hg10 mi
6:32 AM83 °FMore clouds than sun.10 mph68%30.08 "Hg10 mi
5:53 AM82 °FMostly cloudy.12 mph70%30.07 "Hg10 mi
Weather by CustomWeather, © 2015

See weather overviewHow to use our weather pages